Montpelier, VT

7:59 PM EDT on June 25, 2017 (GMT -0400)
Knapp State

Weather History for KMPV - October, 2010

Change the Weather History Date:

Monday, October 11, 2010

  Actual Average Record
Temperature  
Mean Temperature 46 °F 47 °F  
Max Temperature 55 °F 58 °F 83 °F (1949)
Min Temperature 37 °F 37 °F 19 °F (1986)
Degree Days  
Heating Degree Days 19 18  
Month to date heating degree days 175  
Since 1 July heating degree days 530  
Cooling Degree Days 0 0  
Month to date cooling degree days 0  
Year to date cooling degree days 263  
Moisture  
Dew Point 36 °F    
Average Humidity 68    
Maximum Humidity 89    
Minimum Humidity 47    
Precipitation  
Precipitation 0.00 in 0.12 in 0.92 in (1975)
Month to date precipitation 1.30  
Year to date precipitation 29.22  
Sea Level Pressure  
Sea Level Pressure 29.82 in    
Wind  
Wind Speed 7 mph (NW)    
Max Wind Speed 15 mph    
Max Gust Speed 23 mph    
Visibility 10 miles    
Events      
T = Trace of Precipitation, MM = Missing Value Source: NWS Daily Summary

Daily Weather History Graph

Daily Weather History Graph

Search for Another Location

Airport or City:

Trip Planner

Search our weather history database for the weather conditions in past years. The results will help you decide how hot, cold, wet, or windy it might be!

Date:

Astronomy

Oct. 11, 2010 Rise Set
Actual Time 7:00 AM EDT 6:13 PM EDT
Civil Twilight 6:30 AM EDT 6:42 PM EDT
Nautical Twilight 5:57 AM EDT 7:15 PM EDT
Astronomical Twilight 5:23 AM EDT 7:49 PM EDT
Moon 11:45 AM EDT (10/11) 8:35 PM EDT (10/11)
Length of Visible Light 12h 11m
Length of Day
11h 13m
Waxing Crescent, 19% of the Moon is Illuminated
Oct 11
Waxing Crescent
Oct 14
First Quarter
Oct 22
Full
Oct 30
Last Quarter
Nov 6
New

Hourly Weather History & Observations

Time (EDT) Temp. Windchill Dew Point Humidity Pressure Visibility Wind Dir Wind Speed Gust Speed Precip Events Conditions
12:51 AM 43.0 °F - 36.0 °F 76% 29.73 in 10.0 mi Calm Calm - N/A   Mostly Cloudy
1:51 AM 43.0 °F 41.3 °F 37.0 °F 80% 29.73 in 10.0 mi WNW 3.5 mph - N/A   Clear
2:51 AM 45.0 °F 41.8 °F 37.0 °F 74% 29.73 in 10.0 mi West 5.8 mph - N/A   Clear
3:51 AM 48.0 °F - 37.9 °F 68% 29.73 in 10.0 mi WNW 6.9 mph - N/A   Clear
4:51 AM 46.4 °F 41.9 °F 37.4 °F 71% 29.74 in 10.0 mi WNW 9.2 mph - N/A   Clear
5:51 AM 46.0 °F 41.4 °F 37.9 °F 73% 29.78 in 10.0 mi NW 9.2 mph - N/A   Scattered Clouds
6:51 AM 45.0 °F 39.3 °F 37.0 °F 74% 29.80 in 10.0 mi WNW 11.5 mph 21.9 mph N/A   Clear
8:37 AM 46.4 °F 41.1 °F 37.4 °F 71% 29.81 in 10.0 mi NW 11.5 mph 20.7 mph N/A   Mostly Cloudy
8:51 AM 46.0 °F 39.6 °F 37.0 °F 71% 29.83 in 10.0 mi NW 15.0 mph 20.7 mph N/A   Mostly Cloudy
9:27 AM 46.4 °F 40.7 °F 35.6 °F 66% 29.82 in 10.0 mi WNW 12.7 mph 18.4 mph N/A   Mostly Cloudy
9:51 AM 46.9 °F - 35.1 °F 63% 29.84 in 10.0 mi WNW 13.8 mph 23.0 mph N/A   Clear
10:51 AM 48.9 °F - 36.0 °F 61% 29.84 in 10.0 mi NNW 13.8 mph 21.9 mph N/A   Clear
11:51 AM 52.0 °F - 37.0 °F 57% 29.85 in 10.0 mi NNW 10.4 mph 21.9 mph N/A   Mostly Cloudy
12:51 PM 52.0 °F - 35.1 °F 53% 29.85 in 10.0 mi West 15.0 mph 19.6 mph N/A   Partly Cloudy
1:51 PM 53.1 °F - 34.0 °F 48% 29.85 in 10.0 mi NNW 10.4 mph 19.6 mph N/A   Clear
2:51 PM 54.0 °F - 35.1 °F 49% 29.84 in 10.0 mi NNW 10.4 mph 20.7 mph N/A   Clear
3:51 PM 54.0 °F - 35.1 °F 49% 29.83 in 10.0 mi NNW 9.2 mph - N/A   Clear
4:38 PM 55.4 °F - 35.6 °F 47% 29.82 in 1.2 mi NW 9.2 mph - N/A   Haze
4:51 PM 53.1 °F - 36.0 °F 52% 29.83 in 10.0 mi NNW 5.8 mph - N/A   Clear
5:51 PM 50.0 °F - 36.0 °F 59% 29.84 in 10.0 mi NW 3.5 mph - N/A   Clear
6:51 PM 45.0 °F 43.5 °F 36.0 °F 71% 29.86 in 10.0 mi West 3.5 mph - N/A   Clear
7:51 PM 39.9 °F - 35.1 °F 83% 29.88 in 10.0 mi Calm Calm - N/A   Clear
8:51 PM 37.9 °F 35.5 °F 34.0 °F 86% 29.89 in 10.0 mi SSW 3.5 mph - N/A   Clear
9:51 PM 37.9 °F - 34.0 °F 86% 29.89 in 10.0 mi Calm Calm - N/A   Clear
10:51 PM 37.9 °F - 34.0 °F 86% 29.89 in 10.0 mi Calm Calm - N/A   Clear
11:51 PM 39.0 °F - 36.0 °F 89% 29.89 in 10.0 mi Calm Calm - N/A   Clear